Time,TemperatureF,DewpointF,PressureIn,WindDirection,WindDirectionDegrees,WindSpeedMPH,WindSpeedGustMPH,Humidity,HourlyPrecipIn,Conditions,Clouds,dailyrainin,SoftwareType,DateUTC
2013-02-22 00:01:00,20.1,15.8,30.16,ENE,76,14.0,14.0,83,0.00,,,0.00,Wunderground v.1.15,2013-02-22 05:01:00,
2013-02-22 00:05:00,20.1,15.8,30.16,East,81,13.0,14.0,83,0.00,,,0.00,Wunderground v.1.15,2013-02-22 05:05:00,
2013-02-22 00:10:00,20.1,15.8,30.15,ESE,110,12.0,13.0,83,0.00,,,0.00,Wunderground v.1.15,2013-02-22 05:10:00,
2013-02-22 00:15:00,20.2,15.9,30.16,SE,134,13.0,17.0,83,0.00,,,0.00,Wunderground v.1.15,2013-02-22 05:15:00,
2013-02-22 00:20:00,20.3,16.0,30.15,ESE,104,15.0,15.0,83,0.00,,,0.00,Wunderground v.1.15,2013-02-22 05:20:00,
2013-02-22 00:26:00,20.3,16.0,30.15,ESE,113,13.0,15.0,83,0.00,,,0.00,Wunderground v.1.15,2013-02-22 05:26:00,
2013-02-22 00:31:00,20.4,16.1,30.15,SE,132,13.0,13.0,83,0.00,,,0.00,Wunderground v.1.15,2013-02-22 05:31:00,
2013-02-22 00:36:00,20.4,16.1,30.15,ESE,119,13.0,19.0,83,0.00,,,0.00,Wunderground v.1.15,2013-02-22 05:36:00,
2013-02-22 00:41:00,20.4,16.1,30.12,East,82,13.0,13.0,83,0.00,,,0.00,Wunderground v.1.15,2013-02-22 05:41:00,
2013-02-22 00:46:00,20.4,16.1,30.12,ESE,119,14.0,14.0,83,0.00,,,0.00,Wunderground v.1.15,2013-02-22 05:46:00,
2013-02-22 00:55:00,20.6,16.3,30.15,East,96,14.0,14.0,83,0.00,,,0.00,Wunderground v.1.15,2013-02-22 05:55:00,
2013-02-22 01:01:00,20.7,16.4,30.15,East,96,13.0,16.0,83,0.00,,,0.00,Wunderground v.1.15,2013-02-22 06:01:00,
2013-02-22 01:11:00,20.9,16.5,30.15,East,98,13.0,13.0,83,0.00,,,0.00,Wunderground v.1.15,2013-02-22 06:11:00,
2013-02-22 01:16:00,20.9,16.5,30.15,SE,141,12.0,13.0,83,0.00,,,0.00,Wunderground v.1.15,2013-02-22 06:16:00,
2013-02-22 01:21:00,20.9,16.5,30.15,ESE,103,13.0,14.0,83,0.00,,,0.00,Wunderground v.1.15,2013-02-22 06:21:00,
2013-02-22 01:26:00,21.0,16.4,30.14,East,94,13.0,14.0,82,0.00,,,0.00,Wunderground v.1.15,2013-02-22 06:26:00,
2013-02-22 01:35:00,21.0,16.6,30.14,SE,127,13.0,14.0,83,0.00,,,0.00,Wunderground v.1.15,2013-02-22 06:35:00,
2013-02-22 01:41:00,21.1,16.7,30.13,ENE,71,12.0,12.0,83,0.00,,,0.00,Wunderground v.1.15,2013-02-22 06:41:00,
2013-02-22 01:46:00,21.1,16.5,30.12,SE,127,11.0,21.0,82,0.00,,,0.00,Wunderground v.1.15,2013-02-22 06:46:00,
2013-02-22 01:51:00,21.2,16.8,30.13,East,84,12.0,12.0,83,0.00,,,0.00,Wunderground v.1.15,2013-02-22 06:51:00,
2013-02-22 01:56:00,21.2,16.8,30.12,ESE,115,11.0,19.0,83,0.00,,,0.00,Wunderground v.1.15,2013-02-22 06:56:00,
2013-02-22 02:01:00,21.2,16.6,30.11,ESE,112,12.0,12.0,82,0.00,,,0.00,Wunderground v.1.15,2013-02-22 07:01:00,
2013-02-22 02:10:00,21.0,17.2,30.10,East,82,11.0,11.0,85,0.00,,,0.00,Wunderground v.1.15,2013-02-22 07:10:00,
2013-02-22 02:15:00,20.8,17.5,30.10,ESE,119,12.0,12.0,87,0.00,,,0.00,Wunderground v.1.15,2013-02-22 07:15:00,
2013-02-22 02:20:00,20.6,17.3,30.08,NE,47,12.0,13.0,87,0.00,,,0.00,Wunderground v.1.15,2013-02-22 07:20:00,
2013-02-22 02:25:00,20.6,17.3,30.08,ENE,65,11.0,13.0,87,0.00,,,0.00,Wunderground v.1.15,2013-02-22 07:25:00,
2013-02-22 02:30:00,20.6,17.6,30.07,ESE,114,11.0,11.0,88,0.00,,,0.00,Wunderground v.1.15,2013-02-22 07:30:00,
2013-02-22 02:40:00,20.9,17.6,30.06,East,91,10.0,13.0,87,0.00,,,0.00,Wunderground v.1.15,2013-02-22 07:40:00,
2013-02-22 02:45:00,20.9,17.6,30.06,ENE,59,10.0,13.0,87,0.00,,,0.00,Wunderground v.1.15,2013-02-22 07:45:00,
2013-02-22 02:50:00,21.0,17.7,30.06,ENE,59,11.0,12.0,87,0.00,,,0.00,Wunderground v.1.15,2013-02-22 07:50:00,
2013-02-22 02:55:00,21.1,17.8,30.06,ESE,102,11.0,12.0,87,0.00,,,0.00,Wunderground v.1.15,2013-02-22 07:55:00,
2013-02-22 03:01:00,21.1,17.8,30.05,East,84,11.0,11.0,87,0.00,,,0.00,Wunderground v.1.15,2013-02-22 08:01:00,
2013-02-22 03:10:00,21.2,17.9,30.06,ENE,75,10.0,13.0,87,0.00,,,0.00,Wunderground v.1.15,2013-02-22 08:10:00,
2013-02-22 03:15:00,21.1,18.1,30.05,East,89,10.0,13.0,88,0.00,,,0.00,Wunderground v.1.15,2013-02-22 08:15:00,
2013-02-22 03:20:00,21.1,18.4,30.04,ENE,77,10.0,10.0,89,0.00,,,0.00,Wunderground v.1.15,2013-02-22 08:20:00,
2013-02-22 03:25:00,21.0,18.3,30.04,ENE,72,10.0,11.0,89,0.00,,,0.00,Wunderground v.1.15,2013-02-22 08:25:00,
2013-02-22 03:30:00,20.9,18.4,30.03,East,94,10.0,12.0,90,0.00,,,0.00,Wunderground v.1.15,2013-02-22 08:30:00,
2013-02-22 03:35:00,20.9,18.7,30.04,East,84,9.0,12.0,91,0.00,,,0.00,Wunderground v.1.15,2013-02-22 08:35:00,
2013-02-22 03:45:00,20.8,18.8,30.03,ESE,115,9.0,9.0,92,0.00,,,0.00,Wunderground v.1.15,2013-02-22 08:45:00,
2013-02-22 03:50:00,20.8,18.8,30.02,East,92,10.0,12.0,92,0.00,,,0.00,Wunderground v.1.15,2013-02-22 08:50:00,
2013-02-22 03:55:00,20.8,18.8,30.02,ENE,77,11.0,12.0,92,0.00,,,0.00,Wunderground v.1.15,2013-02-22 08:55:00,
2013-02-22 04:01:00,20.7,18.7,30.02,ENE,78,10.0,10.0,92,0.00,,,0.00,Wunderground v.1.15,2013-02-22 09:01:00,
2013-02-22 04:11:00,20.8,18.8,30.01,ENE,61,10.0,13.0,92,0.00,,,0.00,Wunderground v.1.15,2013-02-22 09:11:00,
2013-02-22 04:16:00,20.8,18.8,30.01,East,83,10.0,13.0,92,0.00,,,0.00,Wunderground v.1.15,2013-02-22 09:16:00,
2013-02-22 04:25:00,20.8,19.1,30.00,NE,56,9.0,15.0,93,0.00,,,0.00,Wunderground v.1.15,2013-02-22 09:25:00,
2013-02-22 04:30:00,20.8,19.1,30.00,East,87,10.0,10.0,93,0.00,,,0.00,Wunderground v.1.15,2013-02-22 09:30:00,
2013-02-22 04:35:00,20.8,19.1,30.00,ESE,105,10.0,10.0,93,0.00,,,0.00,Wunderground v.1.15,2013-02-22 09:35:00,
2013-02-22 04:40:00,20.8,19.1,30.00,ENE,72,9.0,9.0,93,0.00,,,0.00,Wunderground v.1.15,2013-02-22 09:40:00,
2013-02-22 04:46:00,20.9,19.2,29.99,ENE,76,10.0,13.0,93,0.00,,,0.00,Wunderground v.1.15,2013-02-22 09:46:00,
2013-02-22 04:51:00,20.9,19.2,29.99,ESE,111,9.0,9.0,93,0.00,,,0.00,Wunderground v.1.15,2013-02-22 09:51:00,
2013-02-22 04:56:00,21.0,19.3,29.99,ESE,115,9.0,12.0,93,0.00,,,0.00,Wunderground v.1.15,2013-02-22 09:56:00,
2013-02-22 05:01:00,21.0,19.3,29.99,East,86,8.0,10.0,93,0.00,,,0.00,Wunderground v.1.15,2013-02-22 10:01:00,
2013-02-22 05:11:00,21.1,19.4,29.99,East,83,8.0,8.0,93,0.00,,,0.00,Wunderground v.1.15,2013-02-22 10:11:00,
2013-02-22 05:21:00,21.2,19.5,29.97,East,99,9.0,12.0,93,0.00,,,0.00,Wunderground v.1.15,2013-02-22 10:21:00,
2013-02-22 05:26:00,21.2,19.5,29.97,ESE,113,10.0,12.0,93,0.00,,,0.00,Wunderground v.1.15,2013-02-22 10:26:00,
2013-02-22 05:31:00,21.2,19.5,29.97,East,101,10.0,10.0,93,0.00,,,0.00,Wunderground v.1.15,2013-02-22 10:31:00,
2013-02-22 05:36:00,21.3,19.6,29.97,ENE,72,9.0,10.0,93,0.00,,,0.00,Wunderground v.1.15,2013-02-22 10:36:00,
2013-02-22 05:41:00,21.3,19.6,29.96,ENE,74,8.0,8.0,93,0.00,,,0.00,Wunderground v.1.15,2013-02-22 10:41:00,
2013-02-22 05:50:00,21.5,19.8,29.96,NE,49,9.0,11.0,93,0.00,,,0.00,Wunderground v.1.15,2013-02-22 10:50:00,
2013-02-22 05:55:00,21.6,19.9,29.96,ESE,113,8.0,11.0,93,0.00,,,0.00,Wunderground v.1.15,2013-02-22 10:55:00,
2013-02-22 06:01:00,21.7,20.0,29.97,ENE,65,8.0,8.0,93,0.00,,,0.00,Wunderground v.1.15,2013-02-22 11:01:00,
2013-02-22 06:10:00,21.9,20.2,29.98,ESE,113,8.0,11.0,93,0.00,,,0.00,Wunderground v.1.15,2013-02-22 11:10:00,
2013-02-22 06:15:00,21.9,20.2,29.97,ESE,106,8.0,11.0,93,0.00,,,0.00,Wunderground v.1.15,2013-02-22 11:15:00,
2013-02-22 06:25:00,22.0,20.3,29.97,ESE,108,9.0,9.0,93,0.00,,,0.00,Wunderground v.1.15,2013-02-22 11:25:00,
2013-02-22 06:30:00,22.0,20.3,29.97,ESE,118,9.0,9.0,93,0.00,,,0.00,Wunderground v.1.15,2013-02-22 11:30:00,
2013-02-22 06:35:00,22.0,20.3,29.97,ESE,115,8.0,9.0,93,0.00,,,0.00,Wunderground v.1.15,2013-02-22 11:35:00,
2013-02-22 06:40:00,22.0,20.3,29.97,ESE,115,7.0,10.0,93,0.00,,,0.00,Wunderground v.1.15,2013-02-22 11:40:00,
2013-02-22 06:45:00,21.9,20.2,29.97,ESE,103,8.0,10.0,93,0.00,,,0.00,Wunderground v.1.15,2013-02-22 11:45:00,
2013-02-22 06:55:00,21.9,20.4,29.96,SE,136,8.0,9.0,94,0.00,,,0.00,Wunderground v.1.15,2013-02-22 11:55:00,
2013-02-22 07:01:00,21.8,20.3,29.96,SE,132,8.0,8.0,94,0.00,,,0.00,Wunderground v.1.15,2013-02-22 12:01:00,
2013-02-22 07:10:00,21.9,20.4,29.97,ESE,112,7.0,7.0,94,0.00,,,0.00,Wunderground v.1.15,2013-02-22 12:10:00,
2013-02-22 07:15:00,21.9,20.4,29.97,East,98,7.0,7.0,94,0.00,,,0.00,Wunderground v.1.15,2013-02-22 12:15:00,
2013-02-22 07:20:00,21.9,20.4,29.97,ESE,111,7.0,7.0,94,0.00,,,0.00,Wunderground v.1.15,2013-02-22 12:20:00,
2013-02-22 07:30:00,21.9,20.4,29.96,East,96,6.0,6.0,94,0.00,,,0.00,Wunderground v.1.15,2013-02-22 12:30:00,
2013-02-22 07:35:00,21.8,20.3,29.97,ESE,102,7.0,7.0,94,0.00,,,0.00,Wunderground v.1.15,2013-02-22 12:35:00,
2013-02-22 07:40:00,21.8,20.3,29.96,ESE,105,7.0,7.0,94,0.00,,,0.00,Wunderground v.1.15,2013-02-22 12:40:00,
2013-02-22 07:45:00,21.8,20.3,29.96,East,80,6.0,7.0,94,0.00,,,0.00,Wunderground v.1.15,2013-02-22 12:45:00,
2013-02-22 07:50:00,21.8,20.3,29.96,SE,142,6.0,7.0,94,0.00,,,0.00,Wunderground v.1.15,2013-02-22 12:50:00,
2013-02-22 08:01:00,21.8,20.3,29.95,ESE,115,6.0,8.0,94,0.00,,,0.00,Wunderground v.1.15,2013-02-22 13:01:00,
2013-02-22 08:10:00,21.9,20.2,29.96,ESE,107,7.0,7.0,93,0.00,,,0.00,Wunderground v.1.15,2013-02-22 13:10:00,
2013-02-22 08:15:00,21.9,20.2,29.96,SE,124,7.0,7.0,93,0.00,,,0.00,Wunderground v.1.15,2013-02-22 13:15:00,
2013-02-22 08:20:00,21.9,20.2,29.96,ESE,104,7.0,8.0,93,0.00,,,0.00,Wunderground v.1.15,2013-02-22 13:20:00,
2013-02-22 08:25:00,22.0,20.3,29.95,ESE,121,7.0,8.0,93,0.00,,,0.00,Wunderground v.1.15,2013-02-22 13:25:00,
2013-02-22 08:35:00,22.1,20.4,29.95,SE,129,6.0,7.0,93,0.00,,,0.00,Wunderground v.1.15,2013-02-22 13:35:00,
2013-02-22 08:40:00,22.1,20.4,29.96,ESE,105,6.0,6.0,93,0.00,,,0.00,Wunderground v.1.15,2013-02-22 13:40:00,
2013-02-22 08:45:00,22.2,20.5,29.96,ESE,105,6.0,8.0,93,0.00,,,0.00,Wunderground v.1.15,2013-02-22 13:45:00,
2013-02-22 08:50:00,22.3,20.6,29.96,SE,131,7.0,7.0,93,0.00,,,0.00,Wunderground v.1.15,2013-02-22 13:50:00,
2013-02-22 08:55:00,22.2,20.5,29.96,ESE,118,7.0,9.0,93,0.00,,,0.00,Wunderground v.1.15,2013-02-22 13:55:00,
2013-02-22 09:01:00,22.3,20.6,29.95,ESE,116,7.0,7.0,93,0.00,,,0.00,Wunderground v.1.15,2013-02-22 14:01:00,
2013-02-22 09:10:00,22.3,20.6,29.95,ESE,108,8.0,8.0,93,0.00,,,0.00,Wunderground v.1.15,2013-02-22 14:10:00,
2013-02-22 09:15:00,22.4,20.7,29.94,ESE,104,6.0,8.0,93,0.00,,,0.00,Wunderground v.1.15,2013-02-22 14:15:00,
2013-02-22 09:20:00,22.5,20.5,29.94,ESE,119,7.0,8.0,92,0.00,,,0.00,Wunderground v.1.15,2013-02-22 14:20:00,
2013-02-22 09:25:00,22.6,20.6,29.93,ESE,106,8.0,8.0,92,0.00,,,0.00,Wunderground v.1.15,2013-02-22 14:25:00,
2013-02-22 09:30:00,22.6,20.6,29.93,ESE,118,8.0,9.0,92,0.00,,,0.00,Wunderground v.1.15,2013-02-22 14:30:00,
2013-02-22 09:40:00,22.8,20.8,29.92,ESE,113,8.0,8.0,92,0.00,,,0.00,Wunderground v.1.15,2013-02-22 14:40:00,
2013-02-22 09:45:00,22.9,20.9,29.93,ESE,108,8.0,10.0,92,0.00,,,0.00,Wunderground v.1.15,2013-02-22 14:45:00,
2013-02-22 09:50:00,23.1,21.1,29.93,ESE,119,7.0,9.0,92,0.00,,,0.00,Wunderground v.1.15,2013-02-22 14:50:00,
2013-02-22 09:55:00,23.2,21.2,29.93,ESE,115,8.0,9.0,92,0.00,,,0.00,Wunderground v.1.15,2013-02-22 14:55:00,
2013-02-22 10:01:00,23.3,21.3,29.92,SE,135,7.0,8.0,92,0.00,,,0.00,Wunderground v.1.15,2013-02-22 15:01:00,
2013-02-22 10:10:00,23.7,21.7,29.92,SE,124,8.0,8.0,92,0.00,,,0.00,Wunderground v.1.15,2013-02-22 15:10:00,
2013-02-22 10:15:00,23.8,21.6,29.92,SE,141,7.0,8.0,91,0.00,,,0.00,Wunderground v.1.15,2013-02-22 15:15:00,
2013-02-22 10:20:00,24.0,21.8,29.92,ESE,121,7.0,7.0,91,0.00,,,0.00,Wunderground v.1.15,2013-02-22 15:20:00,
2013-02-22 10:25:00,24.1,21.9,29.92,SE,136,7.0,7.0,91,0.00,,,0.00,Wunderground v.1.15,2013-02-22 15:25:00,
2013-02-22 10:30:00,24.1,21.9,29.92,ESE,121,8.0,9.0,91,0.00,,,0.00,Wunderground v.1.15,2013-02-22 15:30:00,
2013-02-22 10:35:00,24.2,22.0,29.92,SE,138,8.0,9.0,91,0.00,,,0.00,Wunderground v.1.15,2013-02-22 15:35:00,
2013-02-22 10:41:00,24.2,22.0,29.92,ESE,121,8.0,9.0,91,0.00,,,0.00,Wunderground v.1.15,2013-02-22 15:41:00,
2013-02-22 10:46:00,24.3,22.3,29.92,ESE,119,8.0,9.0,92,0.00,,,0.00,Wunderground v.1.15,2013-02-22 15:46:00,
2013-02-22 10:51:00,24.3,22.1,29.92,ESE,121,7.0,7.0,91,0.00,,,0.00,Wunderground v.1.15,2013-02-22 15:51:00,
2013-02-22 10:56:00,24.4,22.4,29.92,ESE,121,7.0,7.0,92,0.00,,,0.00,Wunderground v.1.15,2013-02-22 15:56:00,
2013-02-22 11:01:00,24.6,22.6,29.92,SE,132,6.0,7.0,92,0.00,,,0.00,Wunderground v.1.15,2013-02-22 16:01:00,
2013-02-22 11:11:00,25.0,22.7,29.92,SE,126,6.0,6.0,91,0.00,,,0.00,Wunderground v.1.15,2013-02-22 16:11:00,
2013-02-22 11:16:00,25.2,22.9,29.92,SE,135,5.0,6.0,91,0.00,,,0.00,Wunderground v.1.15,2013-02-22 16:16:00,
2013-02-22 11:21:00,25.5,23.2,29.92,SE,130,5.0,5.0,91,0.00,,,0.00,Wunderground v.1.15,2013-02-22 16:21:00,
2013-02-22 11:26:00,25.9,23.6,29.92,SSW,203,5.0,7.0,91,0.00,,,0.00,Wunderground v.1.15,2013-02-22 16:26:00,
2013-02-22 11:31:00,26.0,23.7,29.92,SSE,154,5.0,5.0,91,0.00,,,0.00,Wunderground v.1.15,2013-02-22 16:31:00,
2013-02-22 11:36:00,26.1,23.8,29.92,SSE,158,5.0,5.0,91,0.00,,,0.00,Wunderground v.1.15,2013-02-22 16:36:00,
2013-02-22 11:45:00,26.3,23.8,29.92,SE,134,4.0,4.0,90,0.00,,,0.00,Wunderground v.1.15,2013-02-22 16:45:00,
2013-02-22 11:50:00,26.5,24.2,29.92,SE,125,4.0,4.0,91,0.00,,,0.00,Wunderground v.1.15,2013-02-22 16:50:00,
2013-02-22 11:56:00,26.6,24.3,29.92,SSE,149,4.0,4.0,91,0.00,,,0.00,Wunderground v.1.15,2013-02-22 16:56:00,
2013-02-22 12:05:00,26.8,24.5,29.92,SE,131,4.0,7.0,91,0.00,,,0.00,Wunderground v.1.15,2013-02-22 17:05:00,
2013-02-22 12:10:00,27.0,24.7,29.91,ESE,104,4.0,5.0,91,0.00,,,0.00,Wunderground v.1.15,2013-02-22 17:10:00,
2013-02-22 12:16:00,27.1,24.8,29.91,SSE,166,4.0,5.0,91,0.00,,,0.00,Wunderground v.1.15,2013-02-22 17:16:00,
2013-02-22 12:21:00,27.2,24.9,29.91,ESE,118,4.0,5.0,91,0.00,,,0.00,Wunderground v.1.15,2013-02-22 17:21:00,
2013-02-22 12:26:00,27.3,25.0,29.91,ESE,118,4.0,5.0,91,0.00,,,0.00,Wunderground v.1.15,2013-02-22 17:26:00,
2013-02-22 12:31:00,27.5,25.2,29.91,SE,141,4.0,4.0,91,0.00,,,0.00,Wunderground v.1.15,2013-02-22 17:31:00,
2013-02-22 12:36:00,27.7,25.2,29.91,South,176,4.0,4.0,90,0.00,,,0.00,Wunderground v.1.15,2013-02-22 17:36:00,
2013-02-22 12:41:00,27.8,25.2,29.91,South,179,4.0,4.0,90,0.00,,,0.00,Wunderground v.1.15,2013-02-22 17:41:00,
2013-02-22 12:51:00,28.2,25.6,29.91,ESE,118,3.0,3.0,90,0.00,,,0.00,Wunderground v.1.15,2013-02-22 17:51:00,
2013-02-22 12:56:00,28.5,26.2,29.90,South,190,4.0,4.0,91,0.00,,,0.00,Wunderground v.1.15,2013-02-22 17:56:00,
2013-02-22 13:01:00,28.8,26.2,29.90,SE,129,4.0,4.0,90,0.00,,,0.00,Wunderground v.1.15,2013-02-22 18:01:00,
2013-02-22 13:11:00,29.0,26.4,29.90,SE,124,4.0,6.0,90,0.00,,,0.00,Wunderground v.1.15,2013-02-22 18:11:00,
2013-02-22 13:16:00,29.0,26.4,29.90,SSE,156,3.0,6.0,90,0.00,,,0.00,Wunderground v.1.15,2013-02-22 18:16:00,
2013-02-22 13:26:00,29.2,26.9,29.90,South,179,4.0,4.0,91,0.00,,,0.00,Wunderground v.1.15,2013-02-22 18:26:00,
2013-02-22 13:31:00,29.4,27.1,29.89,SSE,162,4.0,4.0,91,0.00,,,0.00,Wunderground v.1.15,2013-02-22 18:31:00,
2013-02-22 13:36:00,29.7,27.1,29.89,ESE,116,3.0,4.0,90,0.00,,,0.00,Wunderground v.1.15,2013-02-22 18:36:00,
2013-02-22 13:41:00,29.7,27.1,29.89,SSE,162,3.0,3.0,90,0.00,,,0.00,Wunderground v.1.15,2013-02-22 18:41:00,
2013-02-22 13:46:00,29.8,27.2,29.89,SE,145,3.0,3.0,90,0.00,,,0.00,Wunderground v.1.15,2013-02-22 18:46:00,
2013-02-22 13:55:00,30.0,27.7,29.89,SSE,155,3.0,4.0,91,0.00,,,0.00,Wunderground v.1.15,2013-02-22 18:55:00,
2013-02-22 14:01:00,30.2,27.9,29.89,South,172,3.0,3.0,91,0.00,,,0.00,Wunderground v.1.15,2013-02-22 19:01:00,
2013-02-22 14:10:00,30.3,28.0,29.89,SSW,193,3.0,3.0,91,0.00,,,0.00,Wunderground v.1.15,2013-02-22 19:10:00,
2013-02-22 14:15:00,30.3,28.0,29.89,South,172,3.0,3.0,91,0.00,,,0.00,Wunderground v.1.15,2013-02-22 19:15:00,
2013-02-22 14:20:00,30.5,28.2,29.89,SSW,199,3.0,3.0,91,0.00,,,0.00,Wunderground v.1.15,2013-02-22 19:20:00,
2013-02-22 14:30:00,30.6,28.6,29.89,South,169,4.0,4.0,92,0.00,,,0.00,Wunderground v.1.15,2013-02-22 19:30:00,
2013-02-22 14:35:00,30.6,28.6,29.89,South,184,4.0,4.0,92,0.00,,,0.00,Wunderground v.1.15,2013-02-22 19:35:00,
2013-02-22 14:40:00,30.7,28.7,29.89,SSE,163,4.0,4.0,92,0.00,,,0.00,Wunderground v.1.15,2013-02-22 19:40:00,
2013-02-22 14:45:00,30.7,28.7,29.89,SSE,160,4.0,5.0,92,0.00,,,0.00,Wunderground v.1.15,2013-02-22 19:45:00,
2013-02-22 14:50:00,30.7,28.9,29.89,SSE,148,4.0,4.0,93,0.00,,,0.00,Wunderground v.1.15,2013-02-22 19:50:00,
2013-02-22 15:01:00,30.9,29.1,29.88,SSE,150,4.0,4.0,93,0.00,,,0.00,Wunderground v.1.15,2013-02-22 20:01:00,
2013-02-22 15:10:00,31.1,29.3,29.88,South,171,3.0,3.0,93,0.00,,,0.00,Wunderground v.1.15,2013-02-22 20:10:00,
2013-02-22 15:15:00,31.1,29.6,29.88,SSE,162,3.0,3.0,94,0.00,,,0.00,Wunderground v.1.15,2013-02-22 20:15:00,
2013-02-22 15:20:00,31.2,29.7,29.88,South,173,4.0,5.0,94,0.00,,,0.00,Wunderground v.1.15,2013-02-22 20:20:00,
2013-02-22 15:25:00,31.2,29.7,29.88,SSW,197,4.0,5.0,94,0.00,,,0.00,Wunderground v.1.15,2013-02-22 20:25:00,
2013-02-22 15:35:00,31.3,29.8,29.88,SSW,203,3.0,5.0,94,0.00,,,0.00,Wunderground v.1.15,2013-02-22 20:35:00,
2013-02-22 15:40:00,31.3,30.0,29.88,SSW,193,3.0,4.0,95,0.00,,,0.00,Wunderground v.1.15,2013-02-22 20:40:00,
2013-02-22 15:45:00,31.3,30.0,29.88,SSW,198,3.0,4.0,95,0.00,,,0.00,Wunderground v.1.15,2013-02-22 20:45:00,
2013-02-22 15:50:00,31.4,30.1,29.88,SSW,200,3.0,3.0,95,0.00,,,0.00,Wunderground v.1.15,2013-02-22 20:50:00,
2013-02-22 15:55:00,31.4,30.1,29.88,SSW,212,3.0,3.0,95,0.00,,,0.00,Wunderground v.1.15,2013-02-22 20:55:00,
2013-02-22 16:01:00,31.5,30.2,29.88,SW,224,3.0,3.0,95,0.00,,,0.00,Wunderground v.1.15,2013-02-22 21:01:00,
2013-02-22 16:10:00,31.6,30.3,29.88,SW,231,2.0,2.0,95,0.00,,,0.00,Wunderground v.1.15,2013-02-22 21:10:00,
2013-02-22 16:15:00,31.6,30.6,29.88,SW,229,3.0,3.0,96,0.00,,,0.00,Wunderground v.1.15,2013-02-22 21:15:00,
2013-02-22 16:20:00,31.7,30.7,29.88,SSE,159,2.0,2.0,96,0.00,,,0.00,Wunderground v.1.15,2013-02-22 21:20:00,
2013-02-22 16:25:00,31.8,30.8,29.88,SW,231,2.0,3.0,96,0.00,,,0.00,Wunderground v.1.15,2013-02-22 21:25:00,
2013-02-22 16:30:00,31.9,30.9,29.88,SW,229,3.0,9.0,96,0.00,,,0.00,Wunderground v.1.15,2013-02-22 21:30:00,
2013-02-22 16:36:00,32.1,31.1,29.88,SSW,212,4.0,9.0,96,0.00,,,0.00,Wunderground v.1.15,2013-02-22 21:36:00,
2013-02-22 16:41:00,32.2,31.2,29.88,SW,224,4.0,4.0,96,0.00,,,0.00,Wunderground v.1.15,2013-02-22 21:41:00,
2013-02-22 16:46:00,32.3,31.3,29.88,WSW,241,4.0,4.0,96,0.00,,,0.00,Wunderground v.1.15,2013-02-22 21:46:00,
2013-02-22 16:51:00,32.3,31.3,29.88,WSW,257,5.0,5.0,96,0.00,,,0.00,Wunderground v.1.15,2013-02-22 21:51:00,
2013-02-22 16:56:00,32.3,31.0,29.88,SW,222,5.0,5.0,95,0.00,,,0.00,Wunderground v.1.15,2013-02-22 21:56:00,
2013-02-22 17:01:00,32.4,31.1,29.89,West,267,5.0,5.0,95,0.00,,,0.00,Wunderground v.1.15,2013-02-22 22:01:00,
2013-02-22 17:11:00,32.4,31.1,29.89,SSW,205,4.0,4.0,95,0.00,,,0.00,Wunderground v.1.15,2013-02-22 22:11:00,
2013-02-22 17:16:00,32.3,31.0,29.89,SW,231,5.0,5.0,95,0.00,,,0.00,Wunderground v.1.15,2013-02-22 22:16:00,
2013-02-22 17:21:00,32.4,31.1,29.89,West,271,5.0,5.0,95,0.00,,,0.00,Wunderground v.1.15,2013-02-22 22:21:00,
2013-02-22 17:26:00,32.4,31.1,29.89,SW,224,4.0,5.0,95,0.00,,,0.00,Wunderground v.1.15,2013-02-22 22:26:00,
2013-02-22 17:31:00,32.3,31.0,29.89,WSW,242,4.0,4.0,95,0.00,,,0.00,Wunderground v.1.15,2013-02-22 22:31:00,
2013-02-22 17:40:00,32.3,31.0,29.89,WSW,244,5.0,5.0,95,0.00,,,0.00,Wunderground v.1.15,2013-02-22 22:40:00,
2013-02-22 17:45:00,32.3,31.0,29.89,SW,217,5.0,5.0,95,0.00,,,0.00,Wunderground v.1.15,2013-02-22 22:45:00,
2013-02-22 17:50:00,32.2,30.9,29.90,West,262,5.0,5.0,95,0.00,,,0.00,Wunderground v.1.15,2013-02-22 22:50:00,
2013-02-22 17:55:00,32.2,30.9,29.90,SSW,205,4.0,5.0,95,0.00,,,0.00,Wunderground v.1.15,2013-02-22 22:55:00,
2013-02-22 18:01:00,32.2,30.9,29.90,SSW,199,5.0,5.0,95,0.00,,,0.00,Wunderground v.1.15,2013-02-22 23:01:00,
2013-02-22 18:10:00,32.1,30.8,29.90,SW,219,5.0,5.0,95,0.00,,,0.00,Wunderground v.1.15,2013-02-22 23:10:00,
2013-02-22 18:15:00,32.1,30.8,29.90,SW,224,4.0,5.0,95,0.00,,,0.00,Wunderground v.1.15,2013-02-22 23:15:00,
2013-02-22 18:20:00,32.0,30.7,29.90,WSW,245,4.0,4.0,95,0.00,,,0.00,Wunderground v.1.15,2013-02-22 23:20:00,
2013-02-22 18:25:00,31.9,30.6,29.90,SW,227,4.0,4.0,95,0.00,,,0.00,Wunderground v.1.15,2013-02-22 23:25:00,
2013-02-22 18:30:00,31.8,30.5,29.91,SW,214,4.0,4.0,95,0.00,,,0.00,Wunderground v.1.15,2013-02-22 23:30:00,
2013-02-22 18:35:00,31.8,30.5,29.91,SW,225,4.0,4.0,95,0.00,,,0.00,Wunderground v.1.15,2013-02-22 23:35:00,
2013-02-22 18:45:00,31.7,30.7,29.91,SW,233,4.0,4.0,96,0.00,,,0.00,Wunderground v.1.15,2013-02-22 23:45:00,
2013-02-22 18:50:00,31.7,30.7,29.91,WSW,257,4.0,4.0,96,0.00,,,0.00,Wunderground v.1.15,2013-02-22 23:50:00,
2013-02-22 18:55:00,31.7,30.7,29.91,WSW,242,4.0,5.0,96,0.00,,,0.00,Wunderground v.1.15,2013-02-22 23:55:00,
2013-02-22 19:01:00,31.7,30.4,29.91,South,191,5.0,5.0,95,0.00,,,0.00,Wunderground v.1.15,2013-02-23 00:01:00,
2013-02-22 19:10:00,31.8,30.3,29.91,WSW,256,5.0,5.0,94,0.00,,,0.00,Wunderground v.1.15,2013-02-23 00:10:00,
2013-02-22 19:20:00,31.8,30.3,29.92,WSW,249,5.0,11.0,94,0.00,,,0.00,Wunderground v.1.15,2013-02-23 00:20:00,
2013-02-22 19:25:00,31.8,30.0,29.92,West,260,6.0,11.0,93,0.00,,,0.00,Wunderground v.1.15,2013-02-23 00:25:00,
2013-02-22 19:30:00,31.8,29.7,29.92,West,277,6.0,6.0,92,0.00,,,0.00,Wunderground v.1.15,2013-02-23 00:30:00,
2013-02-22 19:35:00,31.8,29.5,29.92,West,261,6.0,7.0,91,0.00,,,0.00,Wunderground v.1.15,2013-02-23 00:35:00,
2013-02-22 19:40:00,31.8,29.5,29.92,SSW,212,6.0,7.0,91,0.00,,,0.00,Wunderground v.1.15,2013-02-23 00:40:00,
2013-02-22 19:50:00,31.7,29.4,29.92,SW,219,5.0,6.0,91,0.00,,,0.00,Wunderground v.1.15,2013-02-23 00:50:00,
2013-02-22 19:55:00,31.7,29.1,29.92,SW,221,5.0,6.0,90,0.00,,,0.00,Wunderground v.1.15,2013-02-23 00:55:00,
2013-02-22 20:01:00,31.8,29.2,29.92,WSW,252,6.0,6.0,90,0.00,,,0.00,Wunderground v.1.15,2013-02-23 01:01:00,
2013-02-22 20:10:00,31.7,28.8,29.92,SW,219,4.0,5.0,89,0.00,,,0.00,Wunderground v.1.15,2013-02-23 01:10:00,
2013-02-22 20:15:00,31.7,28.8,29.92,WSW,257,4.0,9.0,89,0.00,,,0.00,Wunderground v.1.15,2013-02-23 01:15:00,
2013-02-22 20:21:00,31.7,28.6,29.92,WNW,289,5.0,5.0,88,0.00,,,0.00,Wunderground v.1.15,2013-02-23 01:21:00,
2013-02-22 20:26:00,31.7,28.6,29.92,SSW,212,5.0,5.0,88,0.00,,,0.00,Wunderground v.1.15,2013-02-23 01:26:00,
2013-02-22 20:31:00,31.7,28.6,29.92,WSW,242,5.0,7.0,88,0.00,,,0.00,Wunderground v.1.15,2013-02-23 01:31:00,
2013-02-22 20:36:00,31.7,28.6,29.92,WSW,247,5.0,7.0,88,0.00,,,0.00,Wunderground v.1.15,2013-02-23 01:36:00,
2013-02-22 20:41:00,31.7,28.6,29.92,SSW,212,5.0,5.0,88,0.00,,,0.00,Wunderground v.1.15,2013-02-23 01:41:00,
2013-02-22 20:46:00,31.6,28.5,29.93,WSW,249,4.0,5.0,88,0.00,,,0.00,Wunderground v.1.15,2013-02-23 01:46:00,
2013-02-22 20:56:00,31.6,28.5,29.93,WSW,241,4.0,5.0,88,0.00,,,0.00,Wunderground v.1.15,2013-02-23 01:56:00,
2013-02-22 21:01:00,31.6,28.5,29.92,WSW,254,4.0,4.0,88,0.00,,,0.00,Wunderground v.1.15,2013-02-23 02:01:00,
2013-02-22 21:11:00,31.5,28.1,29.92,SW,222,5.0,5.0,87,0.00,,,0.00,Wunderground v.1.15,2013-02-23 02:11:00,
2013-02-22 21:16:00,31.5,28.1,29.93,SW,217,5.0,5.0,87,0.00,,,0.00,Wunderground v.1.15,2013-02-23 02:16:00,
2013-02-22 21:25:00,31.4,28.0,29.93,West,280,5.0,5.0,87,0.00,,,0.00,Wunderground v.1.15,2013-02-23 02:25:00,
2013-02-22 21:30:00,31.4,28.3,29.93,SW,231,4.0,4.0,88,0.00,,,0.00,Wunderground v.1.15,2013-02-23 02:30:00,
2013-02-22 21:35:00,31.3,28.2,29.93,WSW,253,4.0,5.0,88,0.00,,,0.00,Wunderground v.1.15,2013-02-23 02:35:00,
2013-02-22 21:40:00,31.2,28.1,29.93,WSW,249,4.0,4.0,88,0.00,,,0.00,Wunderground v.1.15,2013-02-23 02:40:00,
2013-02-22 21:45:00,31.2,27.8,29.93,SW,233,4.0,4.0,87,0.00,,,0.00,Wunderground v.1.15,2013-02-23 02:45:00,
2013-02-22 21:50:00,31.1,27.7,29.93,SW,228,4.0,4.0,87,0.00,,,0.00,Wunderground v.1.15,2013-02-23 02:50:00,
2013-02-22 22:01:00,31.0,27.9,29.94,WNW,288,3.0,3.0,88,0.00,,,0.00,Wunderground v.1.15,2013-02-23 03:01:00,
2013-02-22 22:10:00,30.9,27.2,29.94,SW,232,4.0,10.0,86,0.00,,,0.00,Wunderground v.1.15,2013-02-23 03:10:00,
2013-02-22 22:15:00,30.7,26.7,29.94,WSW,250,6.0,10.0,85,0.00,,,0.00,Wunderground v.1.15,2013-02-23 03:15:00,
2013-02-22 22:20:00,30.6,26.3,29.94,West,276,6.0,6.0,84,0.00,,,0.00,Wunderground v.1.15,2013-02-23 03:20:00,
2013-02-22 22:30:00,30.4,25.9,29.94,WSW,239,5.0,6.0,83,0.00,,,0.00,Wunderground v.1.15,2013-02-23 03:30:00,
2013-02-22 22:35:00,30.2,25.7,29.94,SW,233,6.0,6.0,83,0.00,,,0.00,Wunderground v.1.15,2013-02-23 03:35:00,
2013-02-22 22:40:00,30.1,25.6,29.94,WSW,257,6.0,6.0,83,0.00,,,0.00,Wunderground v.1.15,2013-02-23 03:40:00,
2013-02-22 22:45:00,30.0,25.5,29.94,SW,228,5.0,6.0,83,0.00,,,0.00,Wunderground v.1.15,2013-02-23 03:45:00,
2013-02-22 22:50:00,29.9,25.1,29.94,WSW,249,5.0,6.0,82,0.00,,,0.00,Wunderground v.1.15,2013-02-23 03:50:00,
2013-02-22 22:55:00,29.8,25.0,29.94,SW,231,6.0,6.0,82,0.00,,,0.00,Wunderground v.1.15,2013-02-23 03:55:00,
2013-02-22 23:01:00,29.8,24.7,29.94,WSW,242,6.0,6.0,81,0.00,,,0.00,Wunderground v.1.15,2013-02-23 04:01:00,
2013-02-22 23:10:00,29.6,24.5,29.94,SW,236,5.0,7.0,81,0.00,,,0.00,Wunderground v.1.15,2013-02-23 04:10:00,
2013-02-22 23:15:00,29.5,24.4,29.94,WSW,257,5.0,7.0,81,0.00,,,0.00,Wunderground v.1.15,2013-02-23 04:15:00,
2013-02-22 23:20:00,29.4,24.6,29.94,SW,222,5.0,9.0,82,0.00,,,0.00,Wunderground v.1.15,2013-02-23 04:20:00,
2013-02-22 23:25:00,29.3,24.2,29.94,South,187,4.0,9.0,81,0.00,,,0.00,Wunderground v.1.15,2013-02-23 04:25:00,
2013-02-22 23:35:00,29.2,24.4,29.94,West,274,3.0,5.0,82,0.00,,,0.00,Wunderground v.1.15,2013-02-23 04:35:00,
2013-02-22 23:40:00,29.1,24.0,29.94,WSW,250,3.0,5.0,81,0.00,,,0.00,Wunderground v.1.15,2013-02-23 04:40:00,
2013-02-22 23:45:00,29.0,23.9,29.94,SW,219,4.0,5.0,81,0.00,,,0.00,Wunderground v.1.15,2013-02-23 04:45:00,
2013-02-22 23:50:00,28.9,23.8,29.94,South,187,4.0,9.0,81,0.00,,,0.00,Wunderground v.1.15,2013-02-23 04:50:00,
2013-02-22 23:55:00,28.8,23.4,29.94,WSW,248,6.0,9.0,80,0.00,,,0.00,Wunderground v.1.15,2013-02-23 04:55:00,